Location: Boiro
(42.6475°N, 8.8834°W)
Time: 21:59:16
(UTC+01:00)

Vanguard 1 - Pass Details

Date: 05 December 2021
Orbit: 652 x 3830 km, 34.2° (Epoch: 19 January)

Event Time Altitude Azimuth Distance (km) Brightness Sun altitude
Rises 06:34:49 0° 281° (W) 7,955 - -24.2°
Reaches altitude 10° 06:40:52 10° 276° (W) 6,788 - -23.1°
Exits shadow 06:48:28 24° 265° (W) 5,305 13.2 -21.7°
Maximum altitude 06:59:55 43° 214° (SW) 3,577 12.7 -19.6°
Drops below altitude 10° 07:11:54 10° 148° (SSE) 4,370 14.0 -17.5°
Sets 07:14:52 0° 141° (SE) 5,009 14.6 -17.0°
